Regional Weather Roundup
Issued by NWS

Home | Current Version | Previous Version | Text Only | Print | Product List | Glossary Off
Versions: 1 2 3 4 5 6 7 8 9 10 11 12 13 14 15 16 17 18 19 20 21 22 23 24 25 26 27 28 29 30 31 32 33 34 35 36 37 38 39 40 41 42 43 44 45 46 47 48 49 50

000
ASUS43 KFSD 202210
RWRSD

WEATHER ROUNDUP FOR SOUTH DAKOTA
NATIONAL WEATHER SERVICE SIOUX FALLS SD
400 PM CST FRI JAN 20 2017

NOTE: "FAIR" INDICATES FEW OR NO CLOUDS BELOW 12,000 FEET WITH NO
SIGNIFICANT WEATHER AND/OR OBSTRUCTIONS TO VISIBILITY.


SDZ001>005-009-010-012>017-202300-
NORTHWEST AND NORTH CENTRAL SOUTH DAKOTA

CITY           SKY/WX    TMP DP  RH WIND       PRES   REMARKS
BUFFALO          N/A     36  32  85 NW16      29.27R
FAITH            N/A     25  23  92 NW8       29.29R WCI  16
MOBRIDGE       CLOUDY    30  26  85 N6        29.28S FOG     WCI  24
$$

SDZ012>016-024>037-041>051-057-063-072>074-202300-
SOUTHWEST AND SOUTH CENTRAL SOUTH DAKOTA

CITY           SKY/WX    TMP DP  RH WIND       PRES   REMARKS
RAPID CTY ARPT CLOUDY    40  31  70 NW18      29.31R
PIERRE         CLOUDY    21  17  84 SW7       29.32R WCI  12
CUSTER         CLOUDY    39  24  55 NE3       29.30R
ELLSWORTH AFB  MOSUNNY   39  32  75 N18       29.30R
PHILIP         PTSUNNY   36  31  82 NW7       29.31R
PINE RIDGE     CLOUDY    36  31  82 W6        29.34R
SPEARFISH      PTSUNNY   39  32  75 W10       29.35S
WINNER         FAIR      43  29  57 W15       29.32S
$$

SDZ004>011-016>023-039-040-202300-
NORTHEAST SOUTH DAKOTA

CITY           SKY/WX    TMP DP  RH WIND       PRES   REMARKS
ABERDEEN       CLOUDY    34  31  88 SE9       29.36R WCI  27
WATERTOWN      FOG       35  35 100 SE12      29.38S VSB 1/4 WCI  27
BROOKINGS      FOG       37  36  96 S14       29.41R VSB 1/2
SISSETON         N/A     35  35 100 S10       29.42R WCI  27
$$

SDZ017-020-022-023-036>040-048>070-202300-
SOUTHEAST SOUTH DAKOTA

CITY           SKY/WX    TMP DP  RH WIND       PRES   REMARKS
SIOUX FALLS    FOG       40  40 100 SE16      29.43R VSB 1/2
HURON          SUNNY     44  36  73 S7        29.34S
CHAMBERLAIN    SUNNY     41  32  71 NW6       29.33R
MITCHELL       SUNNY     49  40  71 S8        29.35S
YANKTON        CLOUDY    43  39  87 SE14      29.40S
$$

ABBREVIATIONS USED IN REMARKS
   TC - TEMPERATURE IN CELSIUS
  WCI - WIND CHILL INDEX
   HX - HEAT INDEX
  VSB - VISIBILITY





USA.gov is the U.S. government's official web portal to all federal, state and local government web resources and services.